Location: Waco, TX
(31.5480°N, 97.1670°W)
Time: 12:07:20
(UTC-06:00)

ISS - Pass Details

Date: 17 February 2018
Orbit: 402 x 407 km, 51.6° (Epoch: 25 February)

Event Time Altitude Azimuth Distance (km) Brightness Sun altitude
Rises 16:35:28 0° 328° (NNW) 2,314 0.1 19.5°
Reaches altitude 10° 16:37:51 10° 344° (NNW) 1,453 -1.1 19.0°
Maximum altitude 16:40:29 22° 37° (NE) 933 -2.4 18.5°
Drops below altitude 10° 16:43:06 10° 91° (E) 1,449 -1.5 18.0°
Sets 16:45:28 0° 108° (ESE) 2,305 -0.4 17.6°
